www.pogodaiklimat.ru

Погода и климат >> Архив погоды >> Филиппины >> Dipolog


ПОГОДА в Dipolog

  • Прогноз погоды в Dipolog
  • Монитор погоды в Dipolog
  • Климат города

АРХИВ ПОГОДЫ в Dipolog

Время (UTC), дата Ветер
(напр.,м/с)
 
Видим.   Явления Облачность Т
(С)
Тd
(С)
f
(%)
Тe
(С)
Тes
(С)
Комфортность P
(гПа)
Po
(гПа)
Тmin
(С)
Tmax
(С)
R
(мм)
R24
(мм)
S
(см)
00 19.02 В 1 20 км мгла {туман} 5/3 540 м
[Cu med, cong Ac As]
+28.2 +26.2 89 +43 +46 опасность
перегрева
1011.8 1012.0 +24.9
03 19.02 СВ 3 20 км мгла {ливн. осадки, туман} 8/3 540 м
[Cu med, cong Ac As]
+29.6 +25.7 80 +44 +50 опасность
перегрева
1011.4 1011.0
06 19.02 СВ 5 20 км мгла {ливн. осадки, туман} 5/3 540 м
[Cu med, cong Ac As]
+31.0 +26.1 75 +46 +50 опасность
перегрева
1009.1 1009.0
09 19.02 С 2 20 км мгла {туман} 3/3 540 м
[Cu med, cong]
+30.4 +25.7 76 +45 +45 опасность
перегрева
1008.7 1009.0
12 19.02 СВ 3 20 км {туман} 3/3 540 м
[Cu med, cong Ac As]
+28.0 +25.4 86 +41 +41 опасность
перегрева
1010.9 1011.0 +31.5
15 19.02 СВ 2 20 км 3/3 540 м
[Cu med, cong Ac As]
+27.2 +25.1 88 +39 +39 очень
душно
1010.7 1011.0
18 19.02 СВ 2 20 км 3/3 540 м
[Cu med, cong Ac As]
+25.9 +24.7 93 +37 +37 очень
душно
1009.4 1009.0
21 19.02 СВ 2 20 км 4/3 540 м
[Cu med, cong Ac As]
+25.8 +24.7 94 +37 +37 очень
душно
1009.1 1009.0
00 20.02 СВ 2 20 км мгла {туман} 5/3 540 м
[Cu med, cong Ac As]
+28.0 +25.5 86 +41 +44 опасность
перегрева
1011.7 1012.0 +25.4
03 20.02 СВ 3 20 км мгла {туман} 3/3 540 м
[Cu med, cong]
+30.6 +25.5 74 +45 +56 опасность
перегрева
1011.4 1011.0
06 20.02 В 2 20 км мгла {туман} 4/3 540 м
[Cu med, cong Ci fib]
+31.4 +26.0 73 +47 +56 опасность
перегрева
1008.8 1009.0
09 20.02 СВ 2 20 км мгла {туман} 4/3 540 м
[Cu med, cong Ci fib]
+30.4 +25.7 76 +45 +45 опасность
перегрева
1008.6 1009.0
12 20.02 ЮВ 1 20 км {туман} 6/3 540 м
[Cu med, cong Ac As]
+27.4 +24.9 86 +39 +39 очень
душно
1010.7 1011.0 +32.2
15 20.02 В 1 20 км 6/3 540 м
[Cu med, cong Ac As]
+26.6 +24.5 88 +37 +37 очень
душно
1010.0 1010.0
18 20.02 штиль 0 20 км 8/3 540 м
[Cu med, cong Ac As]
+26.0 +24.5 91 +36 +36 очень
душно
1008.9 1009.0
21 20.02 В 1 20 км 5/3 540 м
[Cu med, cong Ac As]
+25.2 +24.0 93 +35 +35 очень
душно
1008.9 1009.0
00 21.02 ЮВ 1 20 км мгла {туман} 6/3 540 м
[Cu med, cong Ac As]
+26.6 +25.0 91 +38 +41 очень
душно
1010.0 1010.0 +24.9
03 21.02 СВ 2 20 км мгла {туман} 3/3 540 м
[Cu med, cong]
+31.0 +26.1 75 +46 +60 опасность
перегрева
1010.0 1010.0
06 21.02 В 4 20 км мгла {туман} 3/3 540 м
[Cu med, cong]
+32.0 +26.3 72 +48 +55 опасность
перегрева
1008.0 1008.0
09 21.02 СВ 2 20 км мгла {туман} 5/3 500 м
[Cb cap Ac As]
+30.7 +26.2 77 +46 +47 опасность
перегрева
1008.0 1008.0
12 21.02 СВ 2 20 км {туман} 5/3 540 м
[Cu med, cong Ac As]
+28.6 +25.3 82 +42 +42 опасность
перегрева
1009.6 1010.0 +33.0
15 21.02 В 2 20 км 5/3 540 м
[Cu med, cong Ac As]
+26.9 +24.9 89 +39 +39 очень
душно
1010.0 1010.0
18 21.02 СВ 2 20 км 5/3 540 м
[Cu med, cong Ac As]
+25.8 +24.7 94 +37 +37 очень
душно
1008.6 1009.0
21 21.02 В 3 20 км 5/3 540 м
[Cu med, cong Ac As]
+25.6 +24.8 95 +36 +36 очень
душно
1008.6 1009.0
00 22.02 СВ 3 20 км мгла {туман} 4/4 500 м
[Cu med, cong]
+28.3 +26.2 88 +43 +46 опасность
перегрева
1010.9 1011.0 +25.0
03 22.02 СВ 3 20 км мгла {туман} 5/3 540 м
[Cu med, cong Ac As]
+31.0 +26.4 77 +47 +56 опасность
перегрева
1011.1 1011.0
06 22.02 В 4 20 км мгла {туман} 5/3 540 м
[Cu med, cong Ac As]
+31.2 +26.3 75 +47 +52 опасность
перегрева
1009.7 1010.0
09 22.02 С 2 20 км мгла {туман} 5/3 540 м
[Cu med, cong Ac As]
+30.0 +26.1 80 +45 +46 опасность
перегрева
1009.1 1009.0
12 22.02 В 3 20 км {туман} 5/3 540 м
[Cu med, cong Ac As]
+27.8 +25.6 88 +41 +41 опасность
перегрева
1010.0 1010.0 +32.2
15 22.02 СВ 2 20 км 5/3 540 м
[Cu med, cong Ac As]
+26.7 +25.1 91 +38 +38 очень
душно
1010.2 1010.0
18 22.02 СВ 2 20 км 5/3 540 м
[Cu med, cong Ac As]
+26.1 +24.6 91 +37 +37 очень
душно
1009.0 1009.0
21 22.02 СВ 2 20 км 5/3 540 м
[Cu med, cong Ac As]
+26.2 +24.6 91 +37 +37 очень
душно
1009.0 1009.0
00 23.02 В 2 20 км мгла {туман} 6/3 540 м
[Cu med, cong Ac As]
+27.8 +25.4 87 +41 +44 опасность
перегрева
1011.3 1011.0 +25.4
03 23.02 СВ 2 20 км мгла {ливн. осадки, туман} 5/3 540 м
[Cu med, cong Ac As]
+30.4 +25.6 76 +45 +56 опасность
перегрева
1011.4 1011.0
06 23.02 СВ 5 20 км мгла {ливн. осадки, туман} 5/3 540 м
[Cu med, cong Ac As]
+32.0 +25.8 70 +47 +51 опасность
перегрева
1009.7 1010.0
09 23.02 СВ 2 20 км мгла {туман} 8/3 540 м
[Cu med, cong Ac As]
+29.8 +25.8 79 +44 +45 опасность
перегрева
1009.3 1009.0
12 23.02 СВ 2 20 км {туман} 8/3 540 м
[Cu med, cong Ac As]
+27.8 +25.4 87 +41 +41 опасность
перегрева
1010.4 1010.0 +32.0
15 23.02 СВ 2 20 км 8/3 540 м
[Cu med, cong Ac As]
+27.0 +25.2 90 +39 +39 очень
душно
1010.7 1011.0
18 23.02 СВ 2 20 км 8/3 540 м
[Cu med, cong Ac As]
+26.1 +24.6 91 +37 +37 очень
душно
1010.3 1010.0
21 23.02 В 2 18 км {ливн. осадки} 8/3 540 м
[Cu med, cong Ac As]
+25.6 +24.0 91 +35 +35 очень
душно
1009.9 1010.0
00 24.02 В 2 20 км осадки на расстоянии {ливн. осадки, туман} 8/3 500 м
[Cb cap Ac As]
+27.2 +25.0 88 +39 +41 очень
душно
1012.3 1012.0 +25.6 2
03 24.02 СВ 3 18 км мгла {ливн. осадки, туман} 9/3 500 м
[Cb cap Ac As]
+28.8 +25.9 84 +43 +47 опасность
перегрева
1012.6 1013.0
06 24.02 СВ 2 18 км мгла {ливн. осадки, туман} 8/3 540 м
[Cu med, cong Ac As]
+30.2 +26.3 80 +46 +51 опасность
перегрева
1010.0 1010.0 1
09 24.02 СВ 2 18 км мгла {туман} 6/3 540 м
[Cb cap Ac As]
+29.1 +26.4 85 +44 +45 опасность
перегрева
1009.2 1009.0
12 24.02 СВ 2 18 км {туман} 6/3 540 м
[Cu med, cong Ac As]
+28.0 +25.2 85 +41 +41 опасность
перегрева
1010.7 1011.0 +30.6
15 24.02 СВ 2 18 км 9/3 540 м
[Cu med, cong Ac As]
+27.2 +25.1 88 +39 +39 очень
душно
1010.6 1011.0
18 24.02 СВ 2 18 км 8/3 540 м
[Cu med, cong Ac As]
+26.1 +24.6 91 +37 +37 очень
душно
1009.4 1009.0
21 24.02 СВ 2 18 км 8/3 540 м
[Cu med, cong Ac As]
+25.6 +24.4 93 +36 +36 очень
душно
1009.4 1009.0
00 25.02 В 1 18 км в посл. час ливневой дождь 10/3 500 м
[Cb cap Ac As]
+25.9 +24.6 93 +37 +38 очень
душно
1011.0 1011.0 +25.6 2
03 25.02 СВ 2 15 км слабый ливневой дождь {туман} 10/3 500 м
[Cb cap Ac As]
+27.3 +25.5 90 +40 +44 очень
душно
1011.0 1011.0
06 25.02 В 2 18 км в посл. час дождь {ливн. осадки} 8/3 500 м
[Cb cap Ac As]
+28.5 +25.4 83 +42 +47 опасность
перегрева
1008.3 1008.0 3
09 25.02 СВ 2 18 км мгла {ливн. осадки, туман} 9/3 500 м
[Cb cap Ac As]
+28.7 +25.6 83 +42 +42 опасность
перегрева
1008.3 1008.0
12 25.02 СВ 2 10 км гроза, ливневой дождь {туман} 10/4 500 м
[Cb cap As op]
+27.2 +25.1 88 +39 +39 очень
душно
1009.6 1010.0 +28.6 3
15 25.02 СВ 2 10 км гроза, ливневой дождь 10/4 500 м
[Sc As op]
+26.1 +24.6 91 +37 +37 очень
душно
1010.7 1011.0
18 25.02 СВ 2 15 км {гроза, дождь} 10/3 500 м
[Cu med, cong Ac As]
+25.0 +23.9 94 +34 +34 очень
душно
1008.9 1009.0 16

 

Местоположение метеостанции Dipolog (Филиппины): широта 8.60 долгота 123.35 высота над уровнем моря 5 м.

В архиве по умолчанию представлена погода в Dipolog за последнюю неделю. Архивные данные за месяц целиком и за предыдущие месяцы, начиная с января 2011 года, Вы можете получить, выбрав интересующий диапазон дат из раскрывающегося списка и нажав кнопку "Ввод!".

Внимание! Время в таблицах - всемирное. Для получения местного времени необходимо прибавить поправку, которая в Dipolog равна 8 ч.

Смотрите также архив погоды в соседних городах и на ближайших метеорологических станциях:

Погода в Dumaguete (Филиппины) (78 км)
Погода в Lumbia Airport (Филиппины) (104 км)
Погода в Tagbilaran (Филиппины) (124 км)
Погода в Cotobato (Филиппины) (186 км)
Погода в Malaybalay (Филиппины) (197 км)
Погода в Mactan (Филиппины) (201 км)
Погода в Maasin (Филиппины) (235 км)
Погода в Zamboanga (Филиппины) (237 км)
Погода в Butuan (Филиппины) (240 км)
Погода в Surigao (Филиппины) (271 км)

Пояснения к столбцам:

Ветер - указаны скорость ветра в м/с - средняя за 10 мин, порывы в срок и между сроками (в фигурных скобках) и направление, откуда дует ветер: С - северный, СВ - северо-восточный, В - восточный, ЮВ - юго-восточный, Ю - южный, ЮЗ - юго-западный, З - западный, СЗ - северо-западный.
Видимость - горизонтальная дальность видимости в метрах или километрах. При видимости от 1 до 10 км при отсутствии осадков обычно наблюдается дымка, при ухудшении видимости до 1 км и менее - туман. В сухую погоду видимость может ухудшаться дымом, пылью или мглою.
Явления - указаны атмосферные явления, наблюдавшиеся в срок или в последний час перед сроком; фигурными скобками обозначены явления, наблюдавшиеся между сроками (за 1-3 часа до срока); квадратными скобками обозначены град или гололедные отложения с указанием их диаметра в мм.
Облачность - указаны через наклонную черту общая и нижняя облачность в баллах и высота нижней границы облаков в метрах; квадратными скобками обозначены формы облаков: Ci - перистые, Cs - перисто-слоистые, Cc - перисто-кучевые, Ac - высококучевые, As - высокослоистые, Sc - слоисто-кучевые, Ns - слоисто-дождевые, Cu - кучевые, Cb - кучево-дождевые. Подробнее классификацию облаков см. в Атласе облаков (PDF).
T - Температура воздуха - температура, измеренная на высоте 2 м над землей.
Td - Температура точки росы - температура, при понижении до которой содержащийся в воздухе водяной пар достигнет насыщения.
f - Относительная влажность воздуха - влажноcть воздуха, измеренная на высоте 2 м над землей.
Te - Эффективная температура - температура, которую ощущает одетый по сезону человек в тени. Характеристика душности погоды. При расчете учитывается влияние влажности воздуха и скорости ветра на теплоощущения человека.
Tes - Эффективная температура на солнце - температура, которую ощущает человек, с поправкой на солнечный нагрев. Характеристика знойности погоды. Зависит от высоты солнца над горизонтом, облачности и скорости ветра. Ночью, в пасмурную погоду, а также при ветре 12 м/с и более поправка равна нулю.
P - Атмосферное давление - приведенное к уровню моря атмосферное давление.
Po - Атмосферное давление - измеренное на уровне метеостанции атмосферное давление.
Tmin - Минимальная температура - минимум температуры воздуха на высоте 2 м над землей.
Tmax - Максимальная температура - максимум температуры воздуха на высоте 2 м над землей.
R - Количество осадков - Количество выпавших осадков за период времени, мм. При наведении курсора мыши на число - период времени, за который выпало указанное количество осадков.
R24 - Количество осадков - Количество выпавших осадков за 24 часа, мм.
S - Снежный покров - Высота снежного покрова, см. При наведении курсора мыши на число - состояние снежного покрова и степень покрытия местности в баллах.